Time,TemperatureF,DewpointF,PressureIn,WindDirection,WindDirectionDegrees,WindSpeedMPH,WindSpeedGustMPH,Humidity,HourlyPrecipIn,Conditions,Clouds,dailyrainin,SoftwareType,DateUTC
2013-05-26 00:03:00,54.0,39.5,30.50,West,270,0.0,6.0,58,0.00,,,-99.99,WeatherLink 5.8.2,2013-05-26 04:03:00,
2013-05-26 00:05:00,53.4,39.4,30.50,West,265,0.0,0.0,59,0.00,,,0.00,Wunderground v.1.15,2013-05-26 04:05:00,
2013-05-26 00:10:00,53.3,38.0,30.50,NE,51,0.0,0.0,56,0.00,,,0.00,Wunderground v.1.15,2013-05-26 04:10:00,
2013-05-26 00:20:00,53.7,36.5,30.51,NW,304,0.0,0.0,52,0.00,,,0.00,Wunderground v.1.15,2013-05-26 04:20:00,
2013-05-26 00:25:00,54.0,37.7,30.51,NW,304,0.0,0.0,54,0.00,,,0.00,Wunderground v.1.15,2013-05-26 04:25:00,
2013-05-26 00:33:00,53.6,37.3,30.51,NW,315,0.0,5.0,54,0.00,,,-99.99,WeatherLink 5.8.2,2013-05-26 04:33:00,
2013-05-26 00:40:00,53.8,38.5,30.51,NW,304,0.0,0.0,56,0.00,,,0.00,Wunderground v.1.15,2013-05-26 04:40:00,
2013-05-26 00:50:00,53.7,37.9,30.51,NW,304,0.0,0.0,55,0.00,,,0.00,Wunderground v.1.15,2013-05-26 04:50:00,
2013-05-26 00:55:00,53.5,37.7,30.51,NW,304,0.0,0.0,55,0.00,,,0.00,Wunderground v.1.15,2013-05-26 04:55:00,
2013-05-26 01:03:00,53.6,38.7,30.51,NW,315,0.0,2.0,57,0.00,,,-99.99,WeatherLink 5.8.2,2013-05-26 05:03:00,
2013-05-26 01:10:00,52.3,38.0,30.51,WNW,294,0.0,0.0,58,0.00,,,0.00,Wunderground v.1.15,2013-05-26 05:10:00,
2013-05-26 01:20:00,51.8,38.8,30.51,North,5,0.0,0.0,61,0.00,,,0.00,Wunderground v.1.15,2013-05-26 05:20:00,
2013-05-26 01:30:00,51.1,38.5,30.51,North,5,0.0,0.0,62,0.00,,,0.00,Wunderground v.1.15,2013-05-26 05:30:00,
2013-05-26 01:35:00,50.9,38.3,30.51,North,5,0.0,1.0,62,0.00,,,0.00,Wunderground v.1.15,2013-05-26 05:35:00,
2013-05-26 01:40:00,50.6,38.5,30.51,North,5,0.0,0.0,63,0.00,,,0.00,Wunderground v.1.15,2013-05-26 05:40:00,
2013-05-26 01:50:00,51.2,37.4,30.51,NW,307,0.0,0.0,59,0.00,,,0.00,Wunderground v.1.15,2013-05-26 05:50:00,
2013-05-26 02:00:00,51.7,37.8,30.50,NW,307,0.0,1.0,59,0.00,,,0.00,Wunderground v.1.15,2013-05-26 06:00:00,
2013-05-26 02:05:00,51.8,37.9,30.50,WNW,296,0.0,1.0,59,0.00,,,0.00,Wunderground v.1.15,2013-05-26 06:05:00,
2013-05-26 02:10:00,51.9,37.6,30.51,West,281,0.0,0.0,58,0.00,,,0.00,Wunderground v.1.15,2013-05-26 06:10:00,
2013-05-26 02:20:00,52.3,37.5,30.51,NW,306,0.0,0.0,57,0.00,,,0.00,Wunderground v.1.15,2013-05-26 06:20:00,
2013-05-26 02:30:00,52.4,37.2,30.51,NW,304,0.0,0.0,56,0.00,,,0.00,Wunderground v.1.15,2013-05-26 06:30:00,
2013-05-26 02:35:00,52.3,38.8,30.51,NW,304,0.0,0.0,60,0.00,,,0.00,Wunderground v.1.15,2013-05-26 06:35:00,
2013-05-26 02:45:00,51.5,38.5,30.51,NW,304,0.0,1.0,61,0.00,,,0.00,Wunderground v.1.15,2013-05-26 06:45:00,
2013-05-26 02:50:00,51.2,37.8,30.50,NW,304,0.0,0.0,60,0.00,,,0.00,Wunderground v.1.15,2013-05-26 06:50:00,
2013-05-26 03:00:00,51.2,37.4,30.50,NW,304,0.0,1.0,59,0.00,,,0.00,Wunderground v.1.15,2013-05-26 07:00:00,
2013-05-26 03:05:00,51.4,37.5,30.51,SW,226,0.0,1.0,59,0.00,,,0.00,Wunderground v.1.15,2013-05-26 07:05:00,
2013-05-26 03:15:00,51.5,38.1,30.51,SW,217,0.0,0.0,60,0.00,,,0.00,Wunderground v.1.15,2013-05-26 07:15:00,
2013-05-26 03:25:00,51.2,37.8,30.51,SW,217,0.0,0.0,60,0.00,,,0.00,Wunderground v.1.15,2013-05-26 07:25:00,
2013-05-26 03:30:00,51.1,37.3,30.50,West,268,0.0,2.0,59,0.00,,,0.00,Wunderground v.1.15,2013-05-26 07:30:00,
2013-05-26 03:40:00,51.4,37.1,30.51,NW,308,1.0,1.0,58,0.00,,,0.00,Wunderground v.1.15,2013-05-26 07:40:00,
2013-05-26 03:45:00,51.6,37.3,30.51,NW,308,1.0,1.0,58,0.00,,,0.00,Wunderground v.1.15,2013-05-26 07:45:00,
2013-05-26 03:55:00,51.5,37.2,30.51,NW,308,0.0,0.0,58,0.00,,,0.00,Wunderground v.1.15,2013-05-26 07:55:00,
2013-05-26 04:00:00,51.5,37.2,30.51,NW,308,0.0,0.0,58,0.00,,,0.00,Wunderground v.1.15,2013-05-26 08:00:00,
2013-05-26 04:10:00,51.5,37.2,30.51,NW,308,0.0,0.0,58,0.00,,,0.00,Wunderground v.1.15,2013-05-26 08:10:00,
2013-05-26 04:15:00,51.5,37.2,30.51,NNW,327,0.0,0.0,58,0.00,,,0.00,Wunderground v.1.15,2013-05-26 08:15:00,
2013-05-26 04:25:00,51.7,37.4,30.51,West,272,0.0,3.0,58,0.00,,,0.00,Wunderground v.1.15,2013-05-26 08:25:00,
2013-05-26 04:30:00,51.7,37.4,30.51,West,272,0.0,0.0,58,0.00,,,0.00,Wunderground v.1.15,2013-05-26 08:30:00,
2013-05-26 04:40:00,51.8,37.0,30.51,NW,311,0.0,1.0,57,0.00,,,0.00,Wunderground v.1.15,2013-05-26 08:40:00,
2013-05-26 04:50:00,51.9,37.1,30.51,NNW,328,0.0,0.0,57,0.00,,,0.00,Wunderground v.1.15,2013-05-26 08:50:00,
2013-05-26 04:55:00,51.9,37.6,30.51,NNW,328,0.0,0.0,58,0.00,,,0.00,Wunderground v.1.15,2013-05-26 08:55:00,
2013-05-26 05:00:00,51.7,37.4,30.51,NNW,328,0.0,0.0,58,0.00,,,0.00,Wunderground v.1.15,2013-05-26 09:00:00,
2013-05-26 05:10:00,51.5,36.8,30.51,NNE,21,0.0,0.0,57,0.00,,,0.00,Wunderground v.1.15,2013-05-26 09:10:00,
2013-05-26 05:15:00,51.6,36.9,30.51,NW,324,0.0,0.0,57,0.00,,,0.00,Wunderground v.1.15,2013-05-26 09:15:00,
2013-05-26 05:20:00,51.7,37.4,30.51,NW,324,0.0,0.0,58,0.00,,,0.00,Wunderground v.1.15,2013-05-26 09:20:00,
2013-05-26 05:30:00,51.8,36.1,30.51,WNW,297,1.0,1.0,55,0.00,,,0.00,Wunderground v.1.15,2013-05-26 09:30:00,
2013-05-26 05:35:00,52.0,36.3,30.51,NW,311,1.0,2.0,55,0.00,,,0.00,Wunderground v.1.15,2013-05-26 09:35:00,
2013-05-26 05:45:00,52.0,36.8,30.51,WNW,296,0.0,1.0,56,0.00,,,0.00,Wunderground v.1.15,2013-05-26 09:45:00,
2013-05-26 05:55:00,51.7,36.9,30.52,WNW,296,0.0,0.0,57,0.00,,,0.00,Wunderground v.1.15,2013-05-26 09:55:00,
2013-05-26 06:00:00,51.6,36.9,30.52,WNW,290,0.0,0.0,57,0.00,,,0.00,Wunderground v.1.15,2013-05-26 10:00:00,
2013-05-26 06:10:00,51.3,37.0,30.52,WNW,296,0.0,0.0,58,0.00,,,0.00,Wunderground v.1.15,2013-05-26 10:10:00,
2013-05-26 06:15:00,51.2,36.9,30.53,NW,304,0.0,0.0,58,0.00,,,0.00,Wunderground v.1.15,2013-05-26 10:15:00,
2013-05-26 06:25:00,51.2,37.8,30.53,NW,323,0.0,0.0,60,0.00,,,0.00,Wunderground v.1.15,2013-05-26 10:25:00,
2013-05-26 06:30:00,51.1,36.8,30.53,NW,323,0.0,0.0,58,0.00,,,0.00,Wunderground v.1.15,2013-05-26 10:30:00,
2013-05-26 06:40:00,51.3,37.4,30.54,NW,323,0.0,0.0,59,0.00,,,0.00,Wunderground v.1.15,2013-05-26 10:40:00,
2013-05-26 06:45:00,51.4,40.4,30.54,NW,323,0.0,0.0,66,0.00,,,0.00,Wunderground v.1.15,2013-05-26 10:45:00,
2013-05-26 06:55:00,51.3,38.3,30.54,NW,323,0.0,0.0,61,0.00,,,0.00,Wunderground v.1.15,2013-05-26 10:55:00,
2013-05-26 07:00:00,51.4,39.2,30.54,NW,323,0.0,0.0,63,0.00,,,0.00,Wunderground v.1.15,2013-05-26 11:00:00,
2013-05-26 07:10:00,51.6,38.6,30.54,NW,323,0.0,0.0,61,0.00,,,0.00,Wunderground v.1.15,2013-05-26 11:10:00,
2013-05-26 07:15:00,51.6,39.8,30.54,NW,323,0.0,0.0,64,0.00,,,0.00,Wunderground v.1.15,2013-05-26 11:15:00,
2013-05-26 07:25:00,51.9,38.0,30.54,NW,323,0.0,0.0,59,0.00,,,0.00,Wunderground v.1.15,2013-05-26 11:25:00,
2013-05-26 07:30:00,52.1,40.3,30.54,NW,323,0.0,0.0,64,0.00,,,0.00,Wunderground v.1.15,2013-05-26 11:30:00,
2013-05-26 07:40:00,53.1,38.7,30.54,ENE,71,0.0,0.0,58,0.00,,,0.00,Wunderground v.1.15,2013-05-26 11:40:00,
2013-05-26 07:45:00,53.6,37.3,30.54,ENE,67,0.0,0.0,54,0.00,,,0.00,Wunderground v.1.15,2013-05-26 11:45:00,
2013-05-26 07:55:00,54.3,39.4,30.54,ENE,74,0.0,0.0,57,0.00,,,0.00,Wunderground v.1.15,2013-05-26 11:55:00,
2013-05-26 08:03:00,53.6,40.0,30.54,ENE,67,0.0,3.0,60,0.00,,,-99.99,WeatherLink 5.8.2,2013-05-26 12:03:00,
2013-05-26 08:10:00,54.2,40.6,30.54,ENE,69,0.0,1.0,60,0.00,,,0.00,Wunderground v.1.15,2013-05-26 12:10:00,
2013-05-26 08:20:00,55.0,42.2,30.54,ESE,113,0.0,1.0,62,0.00,,,0.00,Wunderground v.1.15,2013-05-26 12:20:00,
2013-05-26 08:25:00,55.5,38.1,30.54,NNW,330,1.0,1.0,52,0.00,,,0.00,Wunderground v.1.15,2013-05-26 12:25:00,
2013-05-26 08:33:00,54.9,39.0,30.55,NE,45,1.0,6.0,55,0.00,,,-99.99,WeatherLink 5.8.2,2013-05-26 12:33:00,
2013-05-26 08:40:00,56.9,39.9,30.54,SSE,156,1.0,1.0,53,0.00,,,0.00,Wunderground v.1.15,2013-05-26 12:40:00,
2013-05-26 08:45:00,57.3,38.3,30.55,ENE,76,1.0,1.0,49,0.00,,,0.00,Wunderground v.1.15,2013-05-26 12:45:00,
2013-05-26 08:50:00,57.9,38.3,30.55,NE,50,0.0,0.0,48,0.00,,,0.00,Wunderground v.1.15,2013-05-26 12:50:00,
2013-05-26 09:00:00,58.7,39.6,30.55,NNE,30,1.0,1.0,49,0.00,,,0.00,Wunderground v.1.15,2013-05-26 13:00:00,
2013-05-26 09:05:00,59.0,40.4,30.55,ENE,65,1.0,5.0,50,0.00,,,0.00,Wunderground v.1.15,2013-05-26 13:05:00,
2013-05-26 09:15:00,59.6,41.4,30.55,WNW,291,1.0,1.0,51,0.00,,,0.00,Wunderground v.1.15,2013-05-26 13:15:00,
2013-05-26 09:20:00,59.6,38.8,30.55,ESE,107,1.0,1.0,46,0.00,,,0.00,Wunderground v.1.15,2013-05-26 13:20:00,
2013-05-26 09:30:00,60.2,39.3,30.55,SW,235,1.0,1.0,46,0.00,,,0.00,Wunderground v.1.15,2013-05-26 13:30:00,
2013-05-26 09:35:00,60.3,42.1,30.55,SW,229,1.0,4.0,51,0.00,,,0.00,Wunderground v.1.15,2013-05-26 13:35:00,
2013-05-26 09:45:00,60.6,42.4,30.55,ENE,78,1.0,1.0,51,0.00,,,0.00,Wunderground v.1.15,2013-05-26 13:45:00,
2013-05-26 09:55:00,61.5,41.1,30.55,East,97,1.0,1.0,47,0.00,,,0.00,Wunderground v.1.15,2013-05-26 13:55:00,
2013-05-26 10:00:00,61.5,39.9,30.55,ESE,121,1.0,1.0,45,0.00,,,0.00,Wunderground v.1.15,2013-05-26 14:00:00,
2013-05-26 10:10:00,61.7,41.8,30.56,West,273,1.0,2.0,48,0.00,,,0.00,Wunderground v.1.15,2013-05-26 14:10:00,
2013-05-26 10:15:00,62.0,40.4,30.56,SSE,150,1.0,2.0,45,0.00,,,0.00,Wunderground v.1.15,2013-05-26 14:15:00,
2013-05-26 10:25:00,61.4,41.0,30.56,WNW,299,2.0,4.0,47,0.00,,,0.00,Wunderground v.1.15,2013-05-26 14:25:00,
2013-05-26 10:30:00,61.6,38.9,30.56,WSW,254,2.0,4.0,43,0.00,,,0.00,Wunderground v.1.15,2013-05-26 14:30:00,
2013-05-26 10:40:00,61.8,41.9,30.55,West,266,2.0,2.0,48,0.00,,,0.00,Wunderground v.1.15,2013-05-26 14:40:00,
2013-05-26 10:45:00,62.0,41.0,30.55,ENE,63,1.0,2.0,46,0.00,,,0.00,Wunderground v.1.15,2013-05-26 14:45:00,
2013-05-26 10:55:00,62.7,43.3,30.55,NW,317,2.0,4.0,49,0.00,,,0.00,Wunderground v.1.15,2013-05-26 14:55:00,
2013-05-26 11:00:00,62.8,39.4,30.54,ENE,71,1.0,1.0,42,0.00,,,0.00,Wunderground v.1.15,2013-05-26 15:00:00,
2013-05-26 11:10:00,63.2,39.1,30.54,SE,128,1.0,1.0,41,0.00,,,0.00,Wunderground v.1.15,2013-05-26 15:10:00,
2013-05-26 11:20:00,63.5,42.9,30.54,NNW,330,1.0,2.0,47,0.00,,,0.00,Wunderground v.1.15,2013-05-26 15:20:00,
2013-05-26 11:25:00,63.9,41.5,30.53,SSW,199,1.0,3.0,44,0.00,,,0.00,Wunderground v.1.15,2013-05-26 15:25:00,
2013-05-26 11:33:00,63.4,41.1,30.53,West,270,1.0,7.0,44,0.00,,,-99.99,WeatherLink 5.8.2,2013-05-26 15:33:00,
2013-05-26 11:40:00,63.9,43.3,30.54,WNW,299,2.0,2.0,47,0.00,,,0.00,Wunderground v.1.15,2013-05-26 15:40:00,
2013-05-26 11:50:00,64.6,42.2,30.54,NNW,340,1.0,2.0,44,0.00,,,0.00,Wunderground v.1.15,2013-05-26 15:50:00,
2013-05-26 11:55:00,64.8,41.2,30.54,NW,304,1.0,2.0,42,0.00,,,0.00,Wunderground v.1.15,2013-05-26 15:55:00,
2013-05-26 12:03:00,64.3,40.1,30.53,NW,315,1.0,8.0,41,0.00,,,-99.99,WeatherLink 5.8.2,2013-05-26 16:03:00,
2013-05-26 12:10:00,65.4,44.6,30.53,North,5,1.0,2.0,47,0.00,,,0.00,Wunderground v.1.15,2013-05-26 16:10:00,
2013-05-26 12:20:00,65.8,40.1,30.53,NNE,29,1.0,1.0,39,0.00,,,0.00,Wunderground v.1.15,2013-05-26 16:20:00,
2013-05-26 12:30:00,66.5,43.3,30.53,NW,308,1.0,1.0,43,0.00,,,0.00,Wunderground v.1.15,2013-05-26 16:30:00,
2013-05-26 12:35:00,66.6,40.2,30.53,NNE,30,1.0,1.0,38,0.00,,,0.00,Wunderground v.1.15,2013-05-26 16:35:00,
2013-05-26 12:45:00,66.5,42.7,30.53,NNE,19,2.0,2.0,42,0.00,,,0.00,Wunderground v.1.15,2013-05-26 16:45:00,
2013-05-26 12:50:00,66.7,40.3,30.52,NNE,15,1.0,1.0,38,0.00,,,0.00,Wunderground v.1.15,2013-05-26 16:50:00,
2013-05-26 13:00:00,67.2,40.7,30.52,NW,317,2.0,2.0,38,0.00,,,0.00,Wunderground v.1.15,2013-05-26 17:00:00,
2013-05-26 13:05:00,67.1,37.8,30.51,NE,36,2.0,2.0,34,0.00,,,0.00,Wunderground v.1.15,2013-05-26 17:05:00,
2013-05-26 13:15:00,67.2,42.7,30.51,WNW,294,2.0,4.0,41,0.00,,,0.00,Wunderground v.1.15,2013-05-26 17:15:00,
2013-05-26 13:25:00,67.9,46.3,30.51,NNW,340,1.0,1.0,46,0.00,,,0.00,Wunderground v.1.15,2013-05-26 17:25:00,
2013-05-26 13:30:00,68.3,43.0,30.50,East,100,1.0,2.0,40,0.00,,,0.00,Wunderground v.1.15,2013-05-26 17:30:00,
2013-05-26 13:35:00,68.2,46.0,30.50,ENE,71,2.0,2.0,45,0.00,,,0.00,Wunderground v.1.15,2013-05-26 17:35:00,
2013-05-26 13:45:00,68.8,42.1,30.50,WNW,298,1.0,2.0,38,0.00,,,0.00,Wunderground v.1.15,2013-05-26 17:45:00,
2013-05-26 13:55:00,69.1,43.1,30.50,NNW,335,1.0,1.0,39,0.00,,,0.00,Wunderground v.1.15,2013-05-26 17:55:00,
2013-05-26 14:00:00,69.1,40.3,30.49,WSW,257,1.0,4.0,35,0.00,,,0.00,Wunderground v.1.15,2013-05-26 18:00:00,
2013-05-26 14:10:00,69.4,47.1,30.49,NNE,13,1.0,1.0,45,0.00,,,0.00,Wunderground v.1.15,2013-05-26 18:10:00,
2013-05-26 14:15:00,69.6,39.2,30.48,SSW,213,1.0,2.0,33,0.00,,,0.00,Wunderground v.1.15,2013-05-26 18:15:00,
2013-05-26 14:25:00,69.6,42.9,30.49,NNE,14,1.0,1.0,38,0.00,,,0.00,Wunderground v.1.15,2013-05-26 18:25:00,
2013-05-26 14:30:00,69.8,42.3,30.48,SSW,200,2.0,2.0,37,0.00,,,0.00,Wunderground v.1.15,2013-05-26 18:30:00,
2013-05-26 14:40:00,69.8,40.9,30.48,WSW,255,2.0,2.0,35,0.00,,,0.00,Wunderground v.1.15,2013-05-26 18:40:00,
2013-05-26 14:45:00,70.3,41.3,30.48,WNW,292,1.0,2.0,35,0.00,,,0.00,Wunderground v.1.15,2013-05-26 18:45:00,
2013-05-26 14:55:00,70.7,41.7,30.48,SW,229,2.0,2.0,35,0.00,,,0.00,Wunderground v.1.15,2013-05-26 18:55:00,
2013-05-26 15:00:00,70.9,41.1,30.48,SW,232,1.0,3.0,34,0.00,,,0.00,Wunderground v.1.15,2013-05-26 19:00:00,
2013-05-26 15:10:00,71.7,44.0,30.47,WSW,244,2.0,2.0,37,0.00,,,0.00,Wunderground v.1.15,2013-05-26 19:10:00,
2013-05-26 15:20:00,72.2,39.9,30.47,WNW,294,1.0,1.0,31,0.00,,,0.00,Wunderground v.1.15,2013-05-26 19:20:00,
2013-05-26 15:25:00,72.5,41.7,30.47,WNW,299,1.0,1.0,33,0.00,,,0.00,Wunderground v.1.15,2013-05-26 19:25:00,
2013-05-26 15:33:00,72.0,44.3,30.47,WNW,292,1.0,10.0,37,0.00,,,-99.99,WeatherLink 5.8.2,2013-05-26 19:33:00,
2013-05-26 15:40:00,72.5,40.1,30.47,WNW,286,3.0,4.0,31,0.00,,,0.00,Wunderground v.1.15,2013-05-26 19:40:00,
2013-05-26 15:50:00,72.6,39.4,30.47,WSW,245,2.0,2.0,30,0.00,,,0.00,Wunderground v.1.15,2013-05-26 19:50:00,
2013-05-26 15:55:00,72.7,40.3,30.46,NE,56,2.0,2.0,31,0.00,,,0.00,Wunderground v.1.15,2013-05-26 19:55:00,
2013-05-26 16:00:00,73.0,38.9,30.46,West,259,2.0,5.0,29,0.00,,,0.00,Wunderground v.1.15,2013-05-26 20:00:00,
2013-05-26 16:10:00,72.9,40.5,30.46,WSW,254,2.0,2.0,31,0.00,,,0.00,Wunderground v.1.15,2013-05-26 20:10:00,
2013-05-26 16:20:00,72.7,41.1,30.46,West,273,2.0,2.0,32,0.00,,,0.00,Wunderground v.1.15,2013-05-26 20:20:00,
2013-05-26 16:25:00,72.7,41.1,30.46,NW,318,2.0,2.0,32,0.00,,,0.00,Wunderground v.1.15,2013-05-26 20:25:00,
2013-05-26 16:33:00,72.8,40.4,30.45,West,270,2.0,11.0,31,0.00,,,-99.99,WeatherLink 5.8.2,2013-05-26 20:33:00,
2013-05-26 16:40:00,73.3,40.0,30.46,East,79,1.0,1.0,30,0.00,,,0.00,Wunderground v.1.15,2013-05-26 20:40:00,
2013-05-26 16:50:00,73.3,40.0,30.45,WNW,290,1.0,1.0,30,0.00,,,0.00,Wunderground v.1.15,2013-05-26 20:50:00,
2013-05-26 16:55:00,72.6,39.4,30.46,NNE,32,2.0,2.0,30,0.00,,,0.00,Wunderground v.1.15,2013-05-26 20:55:00,
2013-05-26 17:03:00,73.0,40.6,30.45,WNW,292,1.0,9.0,31,0.00,,,-99.99,WeatherLink 5.8.2,2013-05-26 21:03:00,
2013-05-26 17:10:00,71.5,42.4,30.45,WNW,298,1.0,1.0,35,0.00,,,0.00,Wunderground v.1.15,2013-05-26 21:10:00,
2013-05-26 17:15:00,71.3,42.2,30.45,NE,51,1.0,1.0,35,0.00,,,0.00,Wunderground v.1.15,2013-05-26 21:15:00,
2013-05-26 17:20:00,71.2,39.8,30.45,North,5,1.0,2.0,32,0.00,,,0.00,Wunderground v.1.15,2013-05-26 21:20:00,
2013-05-26 17:30:00,71.1,38.1,30.45,WNW,295,1.0,1.0,30,0.00,,,0.00,Wunderground v.1.15,2013-05-26 21:30:00,
2013-05-26 17:35:00,71.1,41.3,30.45,NNW,333,1.0,2.0,34,0.00,,,0.00,Wunderground v.1.15,2013-05-26 21:35:00,
2013-05-26 17:45:00,70.8,40.3,30.45,NNW,330,1.0,3.0,33,0.00,,,0.00,Wunderground v.1.15,2013-05-26 21:45:00,
2013-05-26 17:50:00,70.7,40.2,30.45,NW,311,1.0,1.0,33,0.00,,,0.00,Wunderground v.1.15,2013-05-26 21:50:00,
2013-05-26 18:00:00,70.6,40.1,30.46,NW,304,1.0,1.0,33,0.00,,,0.00,Wunderground v.1.15,2013-05-26 22:00:00,
2013-05-26 18:05:00,70.5,40.0,30.45,WSW,256,1.0,1.0,33,0.00,,,0.00,Wunderground v.1.15,2013-05-26 22:05:00,
2013-05-26 18:15:00,70.4,39.1,30.45,NNW,327,1.0,1.0,32,0.00,,,0.00,Wunderground v.1.15,2013-05-26 22:15:00,
2013-05-26 18:25:00,70.3,37.4,30.46,NNE,29,0.0,0.0,30,0.00,,,0.00,Wunderground v.1.15,2013-05-26 22:25:00,
2013-05-26 18:30:00,70.4,40.7,30.46,WNW,284,0.0,0.0,34,0.00,,,0.00,Wunderground v.1.15,2013-05-26 22:30:00,
2013-05-26 18:40:00,70.2,40.5,30.46,NW,304,0.0,1.0,34,0.00,,,0.00,Wunderground v.1.15,2013-05-26 22:40:00,
2013-05-26 18:45:00,70.0,38.8,30.46,West,274,1.0,1.0,32,0.00,,,0.00,Wunderground v.1.15,2013-05-26 22:45:00,
2013-05-26 18:55:00,69.9,37.9,30.46,NE,55,0.0,1.0,31,0.00,,,0.00,Wunderground v.1.15,2013-05-26 22:55:00,
2013-05-26 19:00:00,69.9,41.7,30.46,West,264,0.0,0.0,36,0.00,,,0.00,Wunderground v.1.15,2013-05-26 23:00:00,
2013-05-26 19:10:00,69.6,40.7,30.47,West,263,0.0,0.0,35,0.00,,,0.00,Wunderground v.1.15,2013-05-26 23:10:00,
2013-05-26 19:20:00,69.1,41.0,30.47,West,276,0.0,1.0,36,0.00,,,0.00,Wunderground v.1.15,2013-05-26 23:20:00,
2013-05-26 19:25:00,68.9,41.5,30.47,NNW,333,0.0,1.0,37,0.00,,,0.00,Wunderground v.1.15,2013-05-26 23:25:00,
2013-05-26 19:33:00,69.2,43.8,30.47,West,270,0.0,4.0,40,0.00,,,-99.99,WeatherLink 5.8.2,2013-05-26 23:33:00,
2013-05-26 19:40:00,67.6,44.9,30.48,NNW,333,0.0,0.0,44,0.00,,,0.00,Wunderground v.1.15,2013-05-26 23:40:00,
2013-05-26 19:50:00,66.0,45.7,30.48,NNW,333,0.0,0.0,48,0.00,,,0.00,Wunderground v.1.15,2013-05-26 23:50:00,
2013-05-26 20:00:00,64.0,46.0,30.48,NNW,333,0.0,0.0,52,0.00,,,0.00,Wunderground v.1.15,2013-05-27 00:00:00,
2013-05-26 20:05:00,63.2,46.3,30.48,NW,318,0.0,0.0,54,0.00,,,0.00,Wunderground v.1.15,2013-05-27 00:05:00,
2013-05-26 20:10:00,62.5,46.1,30.48,NW,318,0.0,0.0,55,0.00,,,0.00,Wunderground v.1.15,2013-05-27 00:10:00,
2013-05-26 20:20:00,61.1,45.7,30.49,NW,318,0.0,0.0,57,0.00,,,0.00,Wunderground v.1.15,2013-05-27 00:20:00,
2013-05-26 20:30:00,59.8,45.4,30.49,NW,318,0.0,0.0,59,0.00,,,0.00,Wunderground v.1.15,2013-05-27 00:30:00,
2013-05-26 20:35:00,59.3,45.0,30.49,NW,318,0.0,0.0,59,0.00,,,0.00,Wunderground v.1.15,2013-05-27 00:35:00,
2013-05-26 20:45:00,58.5,43.8,30.50,NW,318,0.0,0.0,58,0.00,,,0.00,Wunderground v.1.15,2013-05-27 00:45:00,
2013-05-26 20:50:00,58.1,45.1,30.50,NW,318,0.0,0.0,62,0.00,,,0.00,Wunderground v.1.15,2013-05-27 00:50:00,
2013-05-26 21:00:00,57.0,44.9,30.50,NW,318,0.0,0.0,64,0.00,,,0.00,Wunderground v.1.15,2013-05-27 01:00:00,
2013-05-26 21:10:00,55.9,43.9,30.50,NW,318,0.0,0.0,64,0.00,,,0.00,Wunderground v.1.15,2013-05-27 01:10:00,
2013-05-26 21:15:00,55.8,45.0,30.50,NW,318,0.0,0.0,67,0.00,,,0.00,Wunderground v.1.15,2013-05-27 01:15:00,
2013-05-26 21:25:00,56.1,44.9,30.51,NW,318,0.0,0.0,66,0.00,,,0.00,Wunderground v.1.15,2013-05-27 01:25:00,
2013-05-26 21:30:00,55.9,44.3,30.51,NW,318,0.0,0.0,65,0.00,,,0.00,Wunderground v.1.15,2013-05-27 01:30:00,
2013-05-26 21:40:00,55.3,43.7,30.52,NW,318,0.0,0.0,65,0.00,,,0.00,Wunderground v.1.15,2013-05-27 01:40:00,
2013-05-26 21:45:00,55.0,43.4,30.52,NW,318,0.0,0.0,65,0.00,,,0.00,Wunderground v.1.15,2013-05-27 01:45:00,
2013-05-26 21:55:00,54.4,44.1,30.52,NW,318,0.0,0.0,68,0.00,,,0.00,Wunderground v.1.15,2013-05-27 01:55:00,
2013-05-26 22:00:00,54.1,43.8,30.52,NW,318,0.0,0.0,68,0.00,,,0.00,Wunderground v.1.15,2013-05-27 02:00:00,
2013-05-26 22:10:00,53.7,43.8,30.52,NW,318,0.0,0.0,69,0.00,,,0.00,Wunderground v.1.15,2013-05-27 02:10:00,
2013-05-26 22:20:00,53.3,43.4,30.53,NW,318,0.0,0.0,69,0.00,,,0.00,Wunderground v.1.15,2013-05-27 02:20:00,
2013-05-26 22:25:00,53.2,43.7,30.53,NW,318,0.0,0.0,70,0.00,,,0.00,Wunderground v.1.15,2013-05-27 02:25:00,
2013-05-26 22:33:00,53.5,44.0,30.53,NW,315,0.0,1.0,70,0.00,,,-99.99,WeatherLink 5.8.2,2013-05-27 02:33:00,
2013-05-26 22:40:00,52.7,42.8,30.54,NW,318,0.0,0.0,69,0.00,,,0.00,Wunderground v.1.15,2013-05-27 02:40:00,
2013-05-26 22:50:00,52.4,42.9,30.53,NW,318,0.0,0.0,70,0.00,,,0.00,Wunderground v.1.15,2013-05-27 02:50:00,
2013-05-26 22:55:00,52.2,42.7,30.54,NW,318,0.0,0.0,70,0.00,,,0.00,Wunderground v.1.15,2013-05-27 02:55:00,
2013-05-26 23:03:00,52.5,43.7,30.54,North,-999,0.0,0.0,72,0.00,,,-99.99,WeatherLink 5.8.2,2013-05-27 03:03:00,
2013-05-26 23:10:00,52.0,43.6,30.54,NW,318,0.0,0.0,73,0.00,,,0.00,Wunderground v.1.15,2013-05-27 03:10:00,
2013-05-26 23:15:00,51.9,43.5,30.54,NW,318,0.0,0.0,73,0.00,,,0.00,Wunderground v.1.15,2013-05-27 03:15:00,
2013-05-26 23:20:00,51.9,43.5,30.54,NW,318,0.0,0.0,73,0.00,,,0.00,Wunderground v.1.15,2013-05-27 03:20:00,
2013-05-26 23:25:00,51.9,43.5,30.55,NW,318,0.0,0.0,73,0.00,,,0.00,Wunderground v.1.15,2013-05-27 03:25:00,
2013-05-26 23:33:00,51.9,43.5,30.55,North,-999,0.0,0.0,73,0.00,,,-99.99,WeatherLink 5.8.2,2013-05-27 03:33:00,
2013-05-26 23:40:00,51.8,43.4,30.55,NW,318,0.0,0.0,73,0.00,,,0.00,Wunderground v.1.15,2013-05-27 03:40:00,
2013-05-26 23:45:00,51.8,43.8,30.55,NW,318,0.0,0.0,74,0.00,,,0.00,Wunderground v.1.15,2013-05-27 03:45:00,
2013-05-26 23:50:00,51.8,43.1,30.55,NW,318,0.0,0.0,72,0.00,,,0.00,Wunderground v.1.15,2013-05-27 03:50:00,